Kenai, AK

12:17 AM AKST on February 18, 2018 (GMT -0900)
Kenai Municipal

Weather History for PAEN - April, 2012

Change the Weather History Date:

Friday, April 27, 2012

  Actual Average Record
Temperature  
Mean Temperature 38 °F -  
Max Temperature 48 °F 47 °F 66 °F (2005)
Min Temperature 28 °F 31 °F 10 °F (1955)
Degree Days  
Heating Degree Days 27    
Moisture  
Dew Point 32 °F    
Average Humidity 74    
Maximum Humidity 93    
Minimum Humidity 49    
Precipitation  
Precipitation 0.00 in - - ()
Sea Level Pressure  
Sea Level Pressure 29.70 in    
Wind  
Wind Speed 5 mph (SSW)    
Max Wind Speed 13 mph    
Max Gust Speed -    
Visibility 10 miles    
Events      
Averages and records for this station are not official NWS values.
T = Trace of Precipitation, MM = Missing Value Source: NWS Daily Summary

Daily Weather History Graph

Daily Weather History Graph

Search for Another Location

Airport or City:

Trip Planner

Search our weather history database for the weather conditions in past years. The results will help you decide how hot, cold, wet, or windy it might be!

Date:

Astronomy

Apr. 27, 2012 Rise Set
Actual Time 6:09 AM AKDT 9:57 PM AKDT
Civil Twilight 5:16 AM AKDT 10:51 PM AKDT
Nautical Twilight 3:56 AM AKDT 12:13 AM AKDT
Astronomical Twilight 2:35 AM AKDT Sun does not rise
Moon 10:34 AM AKDT (4/27) 3:16 AM AKDT (4/27)
Length of Visible Light 17h 34m
Length of Day
15h 48m
Waxing Crescent, 34% of the Moon is Illuminated
Apr 27
Waxing Crescent
Apr 29
First Quarter
May 5
Full
May 12
Last Quarter
May 20
New

Hourly Weather History & Observations

Time (AKDT) Temp. Windchill Dew Point Humidity Pressure Visibility Wind Dir Wind Speed Gust Speed Precip Events Conditions
12:53 AM 37.0 °F 33.3 °F 27.0 °F 67% 29.64 in 10.0 mi NE 4.6 mph - N/A   Clear
1:53 AM 37.0 °F - 24.1 °F 59% 29.65 in 10.0 mi Calm Calm - N/A   Clear
2:53 AM 33.1 °F - 28.0 °F 82% 29.65 in 10.0 mi Calm Calm - N/A   Clear
3:53 AM 32.0 °F - 28.0 °F 85% 29.65 in 10.0 mi Calm Calm - N/A   Clear
4:53 AM 30.0 °F 26.5 °F 25.0 °F 82% 29.66 in 10.0 mi ENE 3.5 mph - N/A   Clear
5:53 AM 28.9 °F 25.2 °F 23.0 °F 78% 29.66 in 10.0 mi ENE 3.5 mph - N/A   Clear
6:53 AM 30.0 °F - 25.0 °F 82% 29.67 in 10.0 mi Calm Calm - N/A   Clear
7:53 AM 34.0 °F - 28.0 °F 79% 29.68 in 10.0 mi Calm Calm - N/A   Clear
8:53 AM 42.1 °F 40.2 °F 26.1 °F 53% 29.68 in 10.0 mi South 3.5 mph - N/A   Clear
9:53 AM 45.0 °F 41.2 °F 27.0 °F 49% 29.68 in 10.0 mi SSW 6.9 mph - N/A   Clear
10:53 AM 46.0 °F 41.0 °F 32.0 °F 58% 29.69 in 10.0 mi SW 10.4 mph - N/A   Clear
11:53 AM 46.0 °F 41.4 °F 34.0 °F 63% 29.70 in 10.0 mi SSW 9.2 mph - N/A   Clear
12:53 PM 48.0 °F - 33.1 °F 56% 29.70 in 10.0 mi SW 8.1 mph - N/A   Clear
1:53 PM 48.9 °F - 32.0 °F 52% 29.70 in 10.0 mi SW 9.2 mph - N/A   Clear
2:53 PM 48.0 °F - 32.0 °F 54% 29.70 in 10.0 mi SSW 9.2 mph - N/A   Clear
3:53 PM 46.0 °F 41.4 °F 34.0 °F 63% 29.70 in 10.0 mi SSW 9.2 mph - N/A   Clear
4:53 PM 45.0 °F 40.1 °F 34.0 °F 65% 29.71 in 10.0 mi SW 9.2 mph - N/A   Clear
5:53 PM 41.0 °F 35.2 °F 35.1 °F 79% 29.71 in 10.0 mi SSW 9.2 mph - N/A   Clear
6:43 PM 39.2 °F 32.5 °F 35.6 °F 87% 29.71 in 10.0 mi SSW 10.4 mph - N/A   Scattered Clouds
6:53 PM 39.0 °F 32.3 °F 36.0 °F 89% 29.72 in 10.0 mi SSW 10.4 mph - N/A   Scattered Clouds
7:53 PM 41.0 °F 34.3 °F 37.0 °F 86% 29.72 in 10.0 mi SSW 11.5 mph - N/A   Partly Cloudy
8:53 PM 39.9 °F 32.5 °F 37.0 °F 89% 29.73 in 10.0 mi SSW 12.7 mph - N/A   Overcast
9:04 PM 39.2 °F 32.5 °F 37.4 °F 93% 29.73 in 10.0 mi SSW 10.4 mph - N/A   Overcast
9:53 PM 39.0 °F 31.4 °F 37.0 °F 93% 29.75 in 10.0 mi SSW 12.7 mph - N/A   Overcast
10:53 PM 39.0 °F 31.8 °F 37.0 °F 93% 29.75 in 10.0 mi SSW 11.5 mph - N/A   Overcast
11:53 PM 39.0 °F 32.8 °F 37.0 °F 93% 29.75 in 10.0 mi South 9.2 mph - N/A   Overcast